Time,TemperatureF,DewpointF,PressureIn,WindDirection,WindDirectionDegrees,WindSpeedMPH,WindSpeedGustMPH,Humidity,HourlyPrecipIn,Conditions,Clouds,dailyrainin,SoftwareType,DateUTC
2013-03-20 00:02:00,44.8,35.2,29.77,West,264,5.0,16.0,69,0.00,,,0.00,Weather View 32 v70,2013-03-20 07:02:00,
2013-03-20 00:07:00,44.8,35.2,29.77,WNW,292,6.0,16.0,69,0.00,,,0.00,Weather View 32 v70,2013-03-20 07:07:00,
2013-03-20 00:12:00,44.8,34.8,29.77,WNW,282,9.0,16.0,68,0.00,,,0.00,Weather View 32 v70,2013-03-20 07:12:00,
2013-03-20 00:17:00,44.6,35.0,29.77,WNW,303,6.0,16.0,69,0.04,,,0.04,Weather View 32 v70,2013-03-20 07:17:00,
2013-03-20 00:22:00,44.4,35.2,29.77,West,278,6.0,16.0,70,0.04,,,0.04,Weather View 32 v70,2013-03-20 07:22:00,
2013-03-20 00:27:00,44.4,35.2,29.77,West,263,6.0,11.0,70,0.04,,,0.04,Weather View 32 v70,2013-03-20 07:27:00,
2013-03-20 00:32:00,44.6,34.7,29.74,West,264,6.0,11.0,68,0.04,,,0.04,Weather View 32 v70,2013-03-20 07:32:00,
2013-03-20 00:37:00,44.8,34.1,29.74,WSW,246,11.0,11.0,66,0.04,,,0.04,Weather View 32 v70,2013-03-20 07:37:00,
2013-03-20 00:42:00,45.1,34.1,29.74,WNW,300,16.0,16.0,65,0.04,,,0.04,Weather View 32 v70,2013-03-20 07:42:00,
2013-03-20 00:47:00,45.3,33.4,29.74,West,278,8.0,17.0,63,0.04,,,0.04,Weather View 32 v70,2013-03-20 07:47:00,
2013-03-20 00:52:00,45.7,33.4,29.74,West,271,15.0,17.0,62,0.04,,,0.04,Weather View 32 v70,2013-03-20 07:52:00,
2013-03-20 00:57:00,46.0,32.9,29.74,WNW,302,8.0,17.0,60,0.04,,,0.04,Weather View 32 v70,2013-03-20 07:57:00,
2013-03-20 01:02:00,46.0,32.9,29.74,West,275,9.0,17.0,60,0.04,,,0.04,Weather View 32 v70,2013-03-20 08:02:00,
2013-03-20 01:07:00,46.0,32.5,29.74,West,262,5.0,17.0,59,0.04,,,0.04,Weather View 32 v70,2013-03-20 08:07:00,
2013-03-20 01:12:00,45.9,32.7,29.74,WNW,294,5.0,17.0,60,0.04,,,0.04,Weather View 32 v70,2013-03-20 08:12:00,
2013-03-20 01:17:00,45.5,32.4,29.74,WNW,287,4.0,17.0,60,0.00,,,0.04,Weather View 32 v70,2013-03-20 08:17:00,
2013-03-20 01:23:00,45.9,32.3,29.74,NW,315,12.0,17.0,59,0.00,,,0.04,Weather View 32 v70,2013-03-20 08:23:00,
2013-03-20 01:28:00,46.2,32.2,29.74,SW,226,3.0,17.0,58,0.00,,,0.04,Weather View 32 v70,2013-03-20 08:28:00,
2013-03-20 01:33:00,46.6,31.7,29.74,WSW,254,11.0,17.0,56,0.00,,,0.04,Weather View 32 v70,2013-03-20 08:33:00,
2013-03-20 01:38:00,46.6,31.7,29.74,WSW,258,4.0,17.0,56,0.00,,,0.04,Weather View 32 v70,2013-03-20 08:38:00,
2013-03-20 01:43:00,46.4,31.5,29.74,WSW,248,2.0,17.0,56,0.00,,,0.04,Weather View 32 v70,2013-03-20 08:43:00,
2013-03-20 01:48:00,46.2,31.8,29.71,West,280,4.0,15.0,57,0.00,,,0.04,Weather View 32 v70,2013-03-20 08:48:00,
2013-03-20 01:53:00,46.4,32.0,29.71,West,265,6.0,15.0,57,0.00,,,0.04,Weather View 32 v70,2013-03-20 08:53:00,
2013-03-20 01:58:00,46.4,31.5,29.71,WNW,294,4.0,15.0,56,0.00,,,0.04,Weather View 32 v70,2013-03-20 08:58:00,
2013-03-20 02:03:00,46.4,31.5,29.74,NW,304,4.0,15.0,56,0.00,,,0.04,Weather View 32 v70,2013-03-20 09:03:00,
2013-03-20 02:08:00,46.4,31.5,29.74,WSW,248,4.0,15.0,56,0.00,,,0.04,Weather View 32 v70,2013-03-20 09:08:00,
2013-03-20 02:13:00,46.8,31.9,29.74,WSW,246,10.0,17.0,56,0.00,,,0.04,Weather View 32 v70,2013-03-20 09:13:00,
2013-03-20 02:18:00,46.8,31.9,29.74,WNW,283,6.0,17.0,56,0.00,,,0.04,Weather View 32 v70,2013-03-20 09:18:00,
2013-03-20 02:23:00,46.6,31.7,29.74,SW,233,3.0,17.0,56,0.00,,,0.04,Weather View 32 v70,2013-03-20 09:23:00,
2013-03-20 02:28:00,46.4,31.5,29.74,WSW,253,13.0,17.0,56,0.00,,,0.04,Weather View 32 v70,2013-03-20 09:28:00,
2013-03-20 02:33:00,46.8,31.4,29.74,SW,236,6.0,17.0,55,0.00,,,0.04,Weather View 32 v70,2013-03-20 09:33:00,
2013-03-20 02:38:00,46.6,31.3,29.74,WSW,258,6.0,17.0,55,0.00,,,0.04,Weather View 32 v70,2013-03-20 09:38:00,
2013-03-20 02:43:00,46.4,31.1,29.74,WSW,241,4.0,17.0,55,0.00,,,0.04,Weather View 32 v70,2013-03-20 09:43:00,
2013-03-20 02:48:00,46.6,31.3,29.74,West,267,6.0,17.0,55,0.00,,,0.04,Weather View 32 v70,2013-03-20 09:48:00,
2013-03-20 02:53:00,46.6,31.3,29.74,West,260,0.0,17.0,55,0.00,,,0.04,Weather View 32 v70,2013-03-20 09:53:00,
2013-03-20 02:58:00,46.4,31.5,29.74,NNW,329,0.0,17.0,56,0.00,,,0.04,Weather View 32 v70,2013-03-20 09:58:00,
2013-03-20 03:03:00,46.4,31.1,29.71,WNW,301,3.0,17.0,55,0.00,,,0.04,Weather View 32 v70,2013-03-20 10:03:00,
2013-03-20 03:08:00,46.6,31.3,29.71,WSW,238,6.0,17.0,55,0.00,,,0.04,Weather View 32 v70,2013-03-20 10:08:00,
2013-03-20 03:13:00,46.9,31.1,29.71,WSW,237,4.0,13.0,54,0.00,,,0.04,Weather View 32 v70,2013-03-20 10:13:00,
2013-03-20 03:18:00,46.9,31.1,29.71,SW,225,2.0,13.0,54,0.00,,,0.04,Weather View 32 v70,2013-03-20 10:18:00,
2013-03-20 03:23:00,46.6,31.7,29.71,SW,236,0.0,13.0,56,0.00,,,0.04,Weather View 32 v70,2013-03-20 10:23:00,
2013-03-20 03:28:00,46.4,31.5,29.71,West,273,0.0,13.0,56,0.00,,,0.04,Weather View 32 v70,2013-03-20 10:28:00,
2013-03-20 03:33:00,45.9,31.5,29.71,West,273,0.0,11.0,57,0.00,,,0.04,Weather View 32 v70,2013-03-20 10:33:00,
2013-03-20 03:38:00,45.3,32.2,29.71,SW,225,3.0,11.0,60,0.00,,,0.04,Weather View 32 v70,2013-03-20 10:38:00,
2013-03-20 03:43:00,44.8,32.5,29.71,NW,322,9.0,9.0,62,0.00,,,0.04,Weather View 32 v70,2013-03-20 10:43:00,
2013-03-20 03:48:00,44.8,32.5,29.71,West,276,6.0,11.0,62,0.00,,,0.04,Weather View 32 v70,2013-03-20 10:48:00,
2013-03-20 03:53:00,44.8,32.5,29.71,WNW,301,8.0,11.0,62,0.00,,,0.04,Weather View 32 v70,2013-03-20 10:53:00,
2013-03-20 03:58:00,44.8,32.5,29.71,NNW,328,0.0,11.0,62,0.00,,,0.04,Weather View 32 v70,2013-03-20 10:58:00,
2013-03-20 04:00:00,44.8,32.5,29.71,WNW,299,2.0,11.0,62,0.00,,,0.04,Weather View 32 v70,2013-03-20 11:00:00,
2013-03-20 04:03:00,44.6,33.2,29.71,NNW,333,13.0,13.0,64,0.00,,,0.04,Weather View 32 v70,2013-03-20 11:03:00,
2013-03-20 04:08:00,44.6,32.8,29.71,WNW,286,4.0,13.0,63,0.00,,,0.04,Weather View 32 v70,2013-03-20 11:08:00,
2013-03-20 04:13:00,44.6,32.8,29.71,WSW,245,0.0,13.0,63,0.00,,,0.04,Weather View 32 v70,2013-03-20 11:13:00,
2013-03-20 04:18:00,44.1,32.6,29.71,West,268,3.0,13.0,64,0.00,,,0.04,Weather View 32 v70,2013-03-20 11:18:00,
2013-03-20 04:23:00,43.9,33.2,29.71,WNW,292,2.0,13.0,66,0.00,,,0.04,Weather View 32 v70,2013-03-20 11:23:00,
2013-03-20 04:28:00,44.1,33.4,29.71,West,268,4.0,13.0,66,0.00,,,0.04,Weather View 32 v70,2013-03-20 11:28:00,
2013-03-20 04:33:00,44.2,33.2,29.71,WSW,256,4.0,13.0,65,0.00,,,0.04,Weather View 32 v70,2013-03-20 11:33:00,
2013-03-20 04:39:00,44.6,32.8,29.71,WNW,288,4.0,13.0,63,0.00,,,0.04,Weather View 32 v70,2013-03-20 11:39:00,
2013-03-20 04:44:00,44.6,32.4,29.71,SW,229,0.0,13.0,62,0.00,,,0.04,Weather View 32 v70,2013-03-20 11:44:00,
2013-03-20 04:49:00,44.6,32.4,29.71,SW,225,6.0,13.0,62,0.00,,,0.04,Weather View 32 v70,2013-03-20 11:49:00,
2013-03-20 04:54:00,45.1,32.5,29.71,WNW,291,3.0,13.0,61,0.00,,,0.04,Weather View 32 v70,2013-03-20 11:54:00,
2013-03-20 04:59:00,45.1,32.1,29.71,SW,236,4.0,13.0,60,0.00,,,0.04,Weather View 32 v70,2013-03-20 11:59:00,
2013-03-20 05:00:00,45.1,32.1,29.71,WSW,249,4.0,13.0,60,0.00,,,0.04,Weather View 32 v70,2013-03-20 12:00:00,
2013-03-20 05:04:00,45.0,31.9,29.68,WNW,285,0.0,13.0,60,0.00,,,0.04,Weather View 32 v70,2013-03-20 12:04:00,
2013-03-20 05:09:00,44.6,31.6,29.68,West,277,0.0,11.0,60,0.00,,,0.04,Weather View 32 v70,2013-03-20 12:09:00,
2013-03-20 05:14:00,43.9,31.7,29.68,SW,226,0.0,11.0,62,0.00,,,0.04,Weather View 32 v70,2013-03-20 12:14:00,
2013-03-20 05:19:00,43.0,30.8,29.68,NW,305,4.0,11.0,62,0.00,,,0.04,Weather View 32 v70,2013-03-20 12:19:00,
2013-03-20 05:24:00,42.6,33.2,29.68,SW,230,3.0,11.0,69,0.00,,,0.04,Weather View 32 v70,2013-03-20 12:24:00,
2013-03-20 05:29:00,43.0,32.4,29.68,SW,228,0.0,11.0,66,0.00,,,0.04,Weather View 32 v70,2013-03-20 12:29:00,
2013-03-20 05:34:00,43.2,32.2,29.68,SW,225,2.0,10.0,65,0.00,,,0.04,Weather View 32 v70,2013-03-20 12:34:00,
2013-03-20 05:39:00,43.0,32.0,29.68,SW,229,3.0,10.0,65,0.00,,,0.04,Weather View 32 v70,2013-03-20 12:39:00,
2013-03-20 05:44:00,43.5,31.7,29.68,WSW,248,5.0,10.0,63,0.00,,,0.04,Weather View 32 v70,2013-03-20 12:44:00,
2013-03-20 05:49:00,43.7,31.5,29.68,WNW,290,8.0,10.0,62,0.00,,,0.04,Weather View 32 v70,2013-03-20 12:49:00,
2013-03-20 05:54:00,44.2,31.6,29.68,NNW,341,6.0,10.0,61,0.00,,,0.04,Weather View 32 v70,2013-03-20 12:54:00,
2013-03-20 05:59:00,44.4,31.4,29.68,West,261,4.0,10.0,60,0.00,,,0.04,Weather View 32 v70,2013-03-20 12:59:00,
2013-03-20 06:00:00,44.6,31.1,29.68,WSW,256,3.0,8.0,59,0.00,,,0.04,Weather View 32 v70,2013-03-20 13:00:00,
2013-03-20 06:04:00,44.2,31.2,29.68,WSW,247,5.0,8.0,60,0.00,,,0.04,Weather View 32 v70,2013-03-20 13:04:00,
2013-03-20 06:09:00,44.2,31.2,29.68,SSE,162,5.0,8.0,60,0.00,,,0.04,Weather View 32 v70,2013-03-20 13:09:00,
2013-03-20 06:14:00,44.4,31.4,29.68,SSE,162,5.0,10.0,60,0.00,,,0.04,Weather View 32 v70,2013-03-20 13:14:00,
2013-03-20 06:19:00,44.6,31.1,29.68,SSE,162,3.0,10.0,59,0.00,,,0.04,Weather View 32 v70,2013-03-20 13:19:00,
2013-03-20 06:24:00,44.6,31.1,29.68,SSE,162,6.0,10.0,59,0.00,,,0.04,Weather View 32 v70,2013-03-20 13:24:00,
2013-03-20 06:29:00,44.6,31.1,29.68,SSE,162,10.0,13.0,59,0.00,,,0.04,Weather View 32 v70,2013-03-20 13:29:00,
2013-03-20 06:34:00,44.6,30.7,29.68,SSE,162,9.0,13.0,58,0.00,,,0.04,Weather View 32 v70,2013-03-20 13:34:00,
2013-03-20 06:39:00,44.8,30.5,29.68,West,273,5.0,13.0,57,0.00,,,0.04,Weather View 32 v70,2013-03-20 13:39:00,
2013-03-20 06:44:00,44.8,30.5,29.68,NW,312,6.0,14.0,57,0.00,,,0.04,Weather View 32 v70,2013-03-20 13:44:00,
2013-03-20 06:50:00,45.0,30.2,29.68,NW,310,5.0,14.0,56,0.00,,,0.04,Weather View 32 v70,2013-03-20 13:50:00,
2013-03-20 06:55:00,45.1,30.4,29.68,West,262,6.0,14.0,56,0.00,,,0.04,Weather View 32 v70,2013-03-20 13:55:00,
2013-03-20 07:00:00,45.3,30.1,29.68,WNW,298,8.0,14.0,55,0.00,,,0.04,Weather View 32 v70,2013-03-20 14:00:00,
2013-03-20 07:05:00,45.3,30.1,29.68,WNW,283,9.0,14.0,55,0.00,,,0.04,Weather View 32 v70,2013-03-20 14:05:00,
2013-03-20 07:10:00,45.3,29.6,29.68,WNW,297,8.0,14.0,54,0.00,,,0.04,Weather View 32 v70,2013-03-20 14:10:00,
2013-03-20 07:15:00,45.5,29.8,29.68,NW,326,10.0,14.0,54,0.00,,,0.04,Weather View 32 v70,2013-03-20 14:15:00,
2013-03-20 07:20:00,45.3,29.6,29.68,West,261,11.0,15.0,54,0.00,,,0.04,Weather View 32 v70,2013-03-20 14:20:00,
2013-03-20 07:25:00,45.3,29.6,29.68,West,267,10.0,15.0,54,0.00,,,0.04,Weather View 32 v70,2013-03-20 14:25:00,
2013-03-20 07:30:00,45.3,29.6,29.68,WNW,298,9.0,15.0,54,0.00,,,0.04,Weather View 32 v70,2013-03-20 14:30:00,
2013-03-20 07:35:00,45.5,29.8,29.68,West,269,8.0,15.0,54,0.00,,,0.04,Weather View 32 v70,2013-03-20 14:35:00,
2013-03-20 07:40:00,45.5,29.8,29.68,NW,307,13.0,15.0,54,0.00,,,0.04,Weather View 32 v70,2013-03-20 14:40:00,
2013-03-20 07:45:00,45.9,29.7,29.68,NNW,327,11.0,15.0,53,-0.04,,,0.04,Weather View 32 v70,2013-03-20 14:45:00,
2013-03-20 07:50:00,46.0,29.4,29.68,NW,314,13.0,15.0,52,0.00,,,0.04,Weather View 32 v70,2013-03-20 14:50:00,
2013-03-20 07:55:00,46.0,29.4,29.68,NW,315,11.0,15.0,52,0.00,,,0.04,Weather View 32 v70,2013-03-20 14:55:00,
2013-03-20 08:00:00,46.0,29.4,29.68,WNW,293,6.0,15.0,52,0.00,,,0.04,Weather View 32 v70,2013-03-20 15:00:00,
2013-03-20 08:05:00,45.9,29.2,29.68,WNW,294,9.0,15.0,52,0.00,,,0.04,Weather View 32 v70,2013-03-20 15:05:00,
2013-03-20 08:10:00,46.0,29.4,29.68,NW,304,15.0,17.0,52,0.00,,,0.04,Weather View 32 v70,2013-03-20 15:10:00,
2013-03-20 08:15:00,46.0,29.4,29.68,West,265,4.0,17.0,52,0.00,,,0.04,Weather View 32 v70,2013-03-20 15:15:00,
2013-03-20 08:20:00,46.0,29.4,29.68,WSW,239,4.0,17.0,52,0.00,,,0.04,Weather View 32 v70,2013-03-20 15:20:00,
2013-03-20 08:25:00,46.2,29.5,29.68,WNW,291,5.0,17.0,52,0.00,,,0.04,Weather View 32 v70,2013-03-20 15:25:00,
2013-03-20 08:30:00,46.8,30.0,29.68,WSW,252,8.0,17.0,52,0.00,,,0.04,Weather View 32 v70,2013-03-20 15:30:00,
2013-03-20 08:35:00,47.3,30.1,29.65,West,272,8.0,17.0,51,0.00,,,0.04,Weather View 32 v70,2013-03-20 15:35:00,
2013-03-20 08:40:00,48.4,30.1,29.65,WNW,295,8.0,17.0,49,0.00,,,0.04,Weather View 32 v70,2013-03-20 15:40:00,
2013-03-20 08:45:00,48.7,29.9,29.65,West,263,14.0,17.0,48,0.00,,,0.04,Weather View 32 v70,2013-03-20 15:45:00,
2013-03-20 08:50:00,49.6,30.2,29.68,NW,308,5.0,17.0,47,0.00,,,0.04,Weather View 32 v70,2013-03-20 15:50:00,
2013-03-20 08:55:00,49.8,30.4,29.68,WNW,293,10.0,17.0,47,0.00,,,0.04,Weather View 32 v70,2013-03-20 15:55:00,
2013-03-20 09:00:00,50.9,30.8,29.68,WNW,295,13.0,17.0,46,0.00,,,0.04,Weather View 32 v70,2013-03-20 16:00:00,
2013-03-20 09:05:00,51.4,30.8,29.65,WNW,284,13.0,18.0,45,0.00,,,0.04,Weather View 32 v70,2013-03-20 16:05:00,
2013-03-20 09:10:00,50.4,30.9,29.65,WNW,288,9.0,21.0,47,0.00,,,0.04,Weather View 32 v70,2013-03-20 16:10:00,
2013-03-20 09:15:00,50.4,30.9,29.65,NW,318,11.0,21.0,47,0.00,,,0.04,Weather View 32 v70,2013-03-20 16:15:00,
2013-03-20 09:21:00,51.4,31.3,29.65,NW,308,4.0,21.0,46,0.00,,,0.04,Weather View 32 v70,2013-03-20 16:21:00,
2013-03-20 09:26:00,51.8,31.1,29.65,SW,234,13.0,30.0,45,0.00,,,0.04,Weather View 32 v70,2013-03-20 16:26:00,
2013-03-20 09:31:00,50.4,31.4,29.65,NNW,335,17.0,30.0,48,0.00,,,0.04,Weather View 32 v70,2013-03-20 16:31:00,
2013-03-20 09:36:00,49.1,31.2,29.65,WNW,301,21.0,30.0,50,0.00,,,0.04,Weather View 32 v70,2013-03-20 16:36:00,
2013-03-20 09:41:00,49.6,32.7,29.65,West,281,15.0,30.0,52,0.00,,,0.04,Weather View 32 v70,2013-03-20 16:41:00,
2013-03-20 09:46:00,50.2,31.7,29.65,NW,315,15.0,30.0,49,0.00,,,0.04,Weather View 32 v70,2013-03-20 16:46:00,
2013-03-20 09:51:00,49.8,31.4,29.65,NNW,342,13.0,30.0,49,0.00,,,0.04,Weather View 32 v70,2013-03-20 16:51:00,
2013-03-20 09:56:00,48.9,32.5,29.65,West,264,5.0,30.0,53,0.00,,,0.04,Weather View 32 v70,2013-03-20 16:56:00,
2013-03-20 10:00:00,48.9,32.5,29.65,NW,309,11.0,30.0,53,0.00,,,0.04,Weather View 32 v70,2013-03-20 17:00:00,
2013-03-20 10:01:00,49.1,32.7,29.65,WNW,302,8.0,30.0,53,0.00,,,0.04,Weather View 32 v70,2013-03-20 17:01:00,
2013-03-20 10:06:00,48.7,32.3,29.68,WNW,295,9.0,30.0,53,0.00,,,0.04,Weather View 32 v70,2013-03-20 17:06:00,
2013-03-20 10:11:00,47.8,32.4,29.68,WNW,283,8.0,30.0,55,0.00,,,0.04,Weather View 32 v70,2013-03-20 17:11:00,
2013-03-20 10:16:00,47.8,33.3,29.68,WNW,290,19.0,30.0,57,0.00,,,0.04,Weather View 32 v70,2013-03-20 17:16:00,
2013-03-20 10:21:00,48.2,33.2,29.68,WNW,299,15.0,30.0,56,0.00,,,0.04,Weather View 32 v70,2013-03-20 17:21:00,
2013-03-20 10:26:00,49.1,33.6,29.68,WNW,297,15.0,26.0,55,0.00,,,0.04,Weather View 32 v70,2013-03-20 17:26:00,
2013-03-20 10:31:00,49.5,33.0,29.68,NW,309,13.0,26.0,53,0.00,,,0.04,Weather View 32 v70,2013-03-20 17:31:00,
2013-03-20 10:36:00,49.3,32.8,29.68,West,277,15.0,26.0,53,0.00,,,0.04,Weather View 32 v70,2013-03-20 17:36:00,
2013-03-20 10:41:00,48.9,32.5,29.68,WNW,303,10.0,25.0,53,0.00,,,0.04,Weather View 32 v70,2013-03-20 17:41:00,
2013-03-20 10:46:00,48.7,32.8,29.68,West,279,12.0,25.0,54,0.00,,,0.04,Weather View 32 v70,2013-03-20 17:46:00,
2013-03-20 10:51:00,49.8,32.9,29.68,NW,317,8.0,25.0,52,0.00,,,0.04,Weather View 32 v70,2013-03-20 17:51:00,
2013-03-20 10:56:00,50.5,32.6,29.68,NNW,339,13.0,25.0,50,0.00,,,0.04,Weather View 32 v70,2013-03-20 17:56:00,
2013-03-20 11:00:00,50.9,32.9,29.68,NW,306,8.0,25.0,50,0.00,,,0.04,Weather View 32 v70,2013-03-20 18:00:00,
2013-03-20 11:01:00,51.1,33.1,29.68,WNW,295,11.0,24.0,50,0.00,,,0.04,Weather View 32 v70,2013-03-20 18:01:00,
2013-03-20 11:06:00,50.7,31.7,29.68,NNW,342,11.0,24.0,48,0.00,,,0.04,Weather View 32 v70,2013-03-20 18:06:00,
2013-03-20 11:11:00,49.8,32.4,29.68,NNW,331,13.0,24.0,51,0.00,,,0.04,Weather View 32 v70,2013-03-20 18:11:00,
2013-03-20 11:16:00,49.1,33.6,29.71,West,267,6.0,24.0,55,0.00,,,0.04,Weather View 32 v70,2013-03-20 18:16:00,
2013-03-20 11:21:00,48.0,35.2,29.71,NNE,20,10.0,24.0,61,0.00,,,0.04,Weather View 32 v70,2013-03-20 18:21:00,
2013-03-20 11:26:00,46.6,33.8,29.71,North,353,5.0,24.0,61,0.00,,,0.04,Weather View 32 v70,2013-03-20 18:26:00,
2013-03-20 11:31:00,44.2,32.4,29.71,NE,44,9.0,24.0,63,0.00,,,0.04,Weather View 32 v70,2013-03-20 18:31:00,
2013-03-20 11:36:00,41.5,30.6,29.74,North,357,4.0,24.0,65,0.04,,,0.08,Weather View 32 v70,2013-03-20 18:36:00,
2013-03-20 11:42:00,40.6,33.3,29.74,NNE,31,3.0,23.0,75,0.04,,,0.08,Weather View 32 v70,2013-03-20 18:42:00,
2013-03-20 11:47:00,40.8,35.1,29.74,NE,54,6.0,23.0,80,0.04,,,0.08,Weather View 32 v70,2013-03-20 18:47:00,
2013-03-20 11:52:00,41.7,37.5,29.74,ENE,60,5.0,23.0,85,0.04,,,0.08,Weather View 32 v70,2013-03-20 18:52:00,
2013-03-20 11:57:00,41.0,33.3,29.74,NE,35,6.0,23.0,74,0.04,,,0.08,Weather View 32 v70,2013-03-20 18:57:00,
2013-03-20 12:00:00,41.0,33.7,29.74,NNE,14,11.0,23.0,75,0.04,,,0.08,Weather View 32 v70,2013-03-20 19:00:00,
2013-03-20 12:02:00,40.8,33.8,29.74,ENE,72,5.0,23.0,76,0.04,,,0.08,Weather View 32 v70,2013-03-20 19:02:00,
2013-03-20 12:07:00,40.6,34.3,29.74,ENE,61,5.0,17.0,78,0.04,,,0.08,Weather View 32 v70,2013-03-20 19:07:00,
2013-03-20 12:12:00,40.5,34.1,29.74,North,10,6.0,13.0,78,0.04,,,0.08,Weather View 32 v70,2013-03-20 19:12:00,
2013-03-20 12:17:00,40.3,33.6,29.77,NNE,25,8.0,13.0,77,0.04,,,0.08,Weather View 32 v70,2013-03-20 19:17:00,
2013-03-20 12:22:00,40.6,34.0,29.77,NE,40,5.0,13.0,77,0.04,,,0.08,Weather View 32 v70,2013-03-20 19:22:00,
2013-03-20 12:27:00,41.2,34.5,29.77,North,5,6.0,13.0,77,0.04,,,0.08,Weather View 32 v70,2013-03-20 19:27:00,
2013-03-20 12:32:00,41.4,34.7,29.77,ENE,59,4.0,13.0,77,0.04,,,0.08,Weather View 32 v70,2013-03-20 19:32:00,
2013-03-20 12:37:00,41.5,34.5,29.77,NE,41,5.0,13.0,76,0.00,,,0.08,Weather View 32 v70,2013-03-20 19:37:00,
2013-03-20 12:42:00,42.3,35.2,29.77,North,0,4.0,13.0,76,0.00,,,0.08,Weather View 32 v70,2013-03-20 19:42:00,
2013-03-20 12:47:00,43.2,35.8,29.77,NNE,29,5.0,13.0,75,0.00,,,0.08,Weather View 32 v70,2013-03-20 19:47:00,
2013-03-20 12:52:00,43.7,34.5,29.77,NE,45,5.0,13.0,70,0.00,,,0.08,Weather View 32 v70,2013-03-20 19:52:00,
2013-03-20 12:57:00,44.1,32.3,29.77,NNW,329,4.0,13.0,63,0.00,,,0.08,Weather View 32 v70,2013-03-20 19:57:00,
2013-03-20 13:02:00,44.6,33.2,29.77,NE,39,6.0,11.0,64,0.00,,,0.08,Weather View 32 v70,2013-03-20 20:02:00,
2013-03-20 13:07:00,44.8,32.5,29.77,ENE,64,0.0,11.0,62,0.00,,,0.08,Weather View 32 v70,2013-03-20 20:07:00,
2013-03-20 13:12:00,45.3,31.8,29.77,NW,304,0.0,11.0,59,0.00,,,0.08,Weather View 32 v70,2013-03-20 20:12:00,
2013-03-20 13:17:00,45.9,29.7,29.77,North,353,3.0,11.0,53,0.00,,,0.08,Weather View 32 v70,2013-03-20 20:17:00,
2013-03-20 13:22:00,46.6,31.3,29.77,North,5,4.0,11.0,55,0.00,,,0.08,Weather View 32 v70,2013-03-20 20:22:00,
2013-03-20 13:27:00,47.3,29.1,29.77,NE,35,3.0,10.0,49,0.00,,,0.08,Weather View 32 v70,2013-03-20 20:27:00,
2013-03-20 13:32:00,46.9,30.2,29.77,ENE,58,5.0,10.0,52,0.00,,,0.08,Weather View 32 v70,2013-03-20 20:32:00,
2013-03-20 13:37:00,46.8,30.0,29.77,NE,47,5.0,10.0,52,0.00,,,0.08,Weather View 32 v70,2013-03-20 20:37:00,
2013-03-20 13:42:00,45.9,27.8,29.77,ENE,61,4.0,11.0,49,0.00,,,0.08,Weather View 32 v70,2013-03-20 20:42:00,
2013-03-20 13:47:00,46.2,28.6,29.77,NE,35,7.0,11.0,50,0.00,,,0.08,Weather View 32 v70,2013-03-20 20:47:00,
2013-03-20 13:52:00,46.2,27.1,29.77,ENE,58,4.0,11.0,47,0.00,,,0.08,Weather View 32 v70,2013-03-20 20:52:00,
2013-03-20 13:57:00,46.0,26.4,29.77,ENE,64,3.0,11.0,46,0.00,,,0.08,Weather View 32 v70,2013-03-20 20:57:00,
2013-03-20 14:02:00,46.8,24.8,29.77,NNE,25,6.0,11.0,42,0.00,,,0.08,Weather View 32 v70,2013-03-20 21:02:00,
2013-03-20 14:07:00,47.3,25.9,29.77,WNW,301,5.0,13.0,43,0.00,,,0.08,Weather View 32 v70,2013-03-20 21:07:00,
2013-03-20 14:12:00,47.7,25.1,29.77,NW,325,11.0,18.0,41,0.00,,,0.08,Weather View 32 v70,2013-03-20 21:12:00,
2013-03-20 14:17:00,48.0,24.8,29.77,NNE,30,9.0,18.0,40,0.00,,,0.08,Weather View 32 v70,2013-03-20 21:17:00,
2013-03-20 14:24:00,48.2,25.0,29.77,NW,309,11.0,18.0,40,0.00,,,0.08,Weather View 32 v70,2013-03-20 21:24:00,
2013-03-20 14:29:00,49.6,25.7,29.77,North,0,6.0,18.0,39,0.00,,,0.08,Weather View 32 v70,2013-03-20 21:29:00,
2013-03-20 14:34:00,49.6,26.3,29.77,ENE,62,6.0,18.0,40,0.00,,,0.08,Weather View 32 v70,2013-03-20 21:34:00,
2013-03-20 14:39:00,48.6,25.3,29.77,NE,48,11.0,18.0,40,0.00,,,0.08,Weather View 32 v70,2013-03-20 21:39:00,
2013-03-20 14:44:00,47.5,24.3,29.77,NNE,17,8.0,18.0,40,0.00,,,0.08,Weather View 32 v70,2013-03-20 21:44:00,
2013-03-20 14:49:00,46.8,23.7,29.77,NE,40,8.0,18.0,40,0.00,,,0.08,Weather View 32 v70,2013-03-20 21:49:00,
2013-03-20 14:54:00,47.1,24.0,29.77,NNE,15,6.0,18.0,40,0.00,,,0.08,Weather View 32 v70,2013-03-20 21:54:00,
2013-03-20 14:59:00,48.0,24.8,29.77,North,0,5.0,18.0,40,0.00,,,0.08,Weather View 32 v70,2013-03-20 21:59:00,
2013-03-20 15:04:00,48.6,24.7,29.80,NNW,332,14.0,18.0,39,0.00,,,0.08,Weather View 32 v70,2013-03-20 22:04:00,
2013-03-20 15:09:00,48.7,24.2,29.80,North,8,12.0,24.0,38,0.00,,,0.08,Weather View 32 v70,2013-03-20 22:09:00,
2013-03-20 15:14:00,48.2,23.7,29.80,NW,317,20.0,24.0,38,0.00,,,0.08,Weather View 32 v70,2013-03-20 22:14:00,
2013-03-20 15:19:00,48.4,23.9,29.80,NNE,31,15.0,24.0,38,0.00,,,0.08,Weather View 32 v70,2013-03-20 22:19:00,
2013-03-20 15:24:00,47.8,23.4,29.80,NNW,346,13.0,27.0,38,0.00,,,0.08,Weather View 32 v70,2013-03-20 22:24:00,
2013-03-20 15:29:00,47.5,23.1,29.80,NW,312,19.0,27.0,38,0.00,,,0.08,Weather View 32 v70,2013-03-20 22:29:00,
2013-03-20 15:34:00,47.3,22.9,29.80,NW,317,16.0,27.0,38,0.00,,,0.08,Weather View 32 v70,2013-03-20 22:34:00,
2013-03-20 15:39:00,47.1,23.4,29.80,East,91,13.0,27.0,39,0.00,,,0.08,Weather View 32 v70,2013-03-20 22:39:00,
2013-03-20 15:44:00,45.5,23.7,29.80,NNE,29,5.0,27.0,42,0.00,,,0.08,Weather View 32 v70,2013-03-20 22:44:00,
2013-03-20 15:49:00,44.4,24.9,29.80,North,2,3.0,27.0,46,0.00,,,0.08,Weather View 32 v70,2013-03-20 22:49:00,
2013-03-20 15:54:00,43.3,24.4,29.80,North,11,9.0,27.0,47,0.00,,,0.08,Weather View 32 v70,2013-03-20 22:54:00,
2013-03-20 15:59:00,42.3,24.4,29.80,ENE,65,4.0,27.0,49,0.00,,,0.08,Weather View 32 v70,2013-03-20 22:59:00,
2013-03-20 16:04:00,42.6,24.8,29.82,NE,36,5.0,27.0,49,0.00,,,0.08,Weather View 32 v70,2013-03-20 23:04:00,
2013-03-20 16:09:00,42.4,24.6,29.82,North,357,8.0,27.0,49,0.00,,,0.08,Weather View 32 v70,2013-03-20 23:09:00,
2013-03-20 16:14:00,42.8,24.4,29.82,North,1,8.0,27.0,48,0.00,,,0.08,Weather View 32 v70,2013-03-20 23:14:00,
2013-03-20 16:19:00,43.0,24.1,29.82,NE,34,5.0,27.0,47,0.00,,,0.08,Weather View 32 v70,2013-03-20 23:19:00,
2013-03-20 16:24:00,42.4,24.1,29.82,NE,54,3.0,27.0,48,0.00,,,0.08,Weather View 32 v70,2013-03-20 23:24:00,
2013-03-20 16:29:00,42.8,21.8,29.82,NE,47,5.0,27.0,43,0.00,,,0.08,Weather View 32 v70,2013-03-20 23:29:00,
2013-03-20 16:34:00,42.8,22.4,29.82,NNE,29,7.0,27.0,44,0.00,,,0.08,Weather View 32 v70,2013-03-20 23:34:00,
2013-03-20 16:39:00,42.1,22.2,29.82,East,84,6.0,17.0,45,0.00,,,0.08,Weather View 32 v70,2013-03-20 23:39:00,
2013-03-20 16:44:00,40.6,22.9,29.82,NNE,26,4.0,17.0,49,0.00,,,0.08,Weather View 32 v70,2013-03-20 23:44:00,
2013-03-20 16:49:00,39.7,22.1,29.85,NNE,28,8.0,17.0,49,0.00,,,0.08,Weather View 32 v70,2013-03-20 23:49:00,
2013-03-20 16:54:00,39.0,21.9,29.85,ENE,69,6.0,17.0,50,0.00,,,0.08,Weather View 32 v70,2013-03-20 23:54:00,
2013-03-20 16:59:00,38.7,22.1,29.85,NNE,25,6.0,16.0,51,0.00,,,0.08,Weather View 32 v70,2013-03-20 23:59:00,
2013-03-20 17:04:00,39.2,22.1,29.85,NE,44,4.0,16.0,50,0.00,,,0.08,Weather View 32 v70,2013-03-21 00:04:00,
2013-03-20 17:09:00,39.4,21.8,29.85,NE,39,5.0,16.0,49,0.00,,,0.08,Weather View 32 v70,2013-03-21 00:09:00,
2013-03-20 17:14:00,39.7,22.1,29.85,NNE,21,6.0,16.0,49,0.00,,,0.08,Weather View 32 v70,2013-03-21 00:14:00,
2013-03-20 17:19:00,39.9,20.8,29.85,East,79,7.0,16.0,46,0.00,,,0.08,Weather View 32 v70,2013-03-21 00:19:00,
2013-03-20 17:25:00,39.7,20.6,29.85,NE,34,8.0,16.0,46,0.00,,,0.08,Weather View 32 v70,2013-03-21 00:25:00,
2013-03-20 17:30:00,42.8,22.4,29.85,East,88,4.0,16.0,44,0.00,,,0.08,Weather View 32 v70,2013-03-21 00:30:00,
2013-03-20 17:35:00,43.3,21.8,29.85,North,0,4.0,16.0,42,0.00,,,0.08,Weather View 32 v70,2013-03-21 00:35:00,
2013-03-20 17:40:00,43.3,20.6,29.85,NNE,16,6.0,16.0,40,0.00,,,0.08,Weather View 32 v70,2013-03-21 00:40:00,
2013-03-20 17:45:00,41.9,19.9,29.85,NE,46,11.0,16.0,41,0.00,,,0.08,Weather View 32 v70,2013-03-21 00:45:00,
2013-03-20 17:50:00,43.7,20.9,29.85,North,0,15.0,16.0,40,0.00,,,0.08,Weather View 32 v70,2013-03-21 00:50:00,
2013-03-20 17:55:00,41.4,19.4,29.85,NE,47,11.0,17.0,41,0.00,,,0.08,Weather View 32 v70,2013-03-21 00:55:00,
2013-03-20 18:00:00,40.3,19.0,29.85,NNE,28,14.0,17.0,42,0.00,,,0.08,Weather View 32 v70,2013-03-21 01:00:00,
2013-03-20 18:05:00,38.5,17.9,29.85,NNE,33,13.0,17.0,43,0.00,,,0.08,Weather View 32 v70,2013-03-21 01:05:00,
2013-03-20 18:10:00,36.7,18.3,29.85,NE,49,9.0,17.0,47,-0.08,,,0.08,Weather View 32 v70,2013-03-21 01:10:00,
2013-03-20 18:15:00,36.1,17.8,29.85,NNE,21,6.0,17.0,47,0.00,,,0.08,Weather View 32 v70,2013-03-21 01:15:00,
2013-03-20 18:20:00,36.3,18.0,29.88,NE,37,11.0,17.0,47,0.00,,,0.08,Weather View 32 v70,2013-03-21 01:20:00,
2013-03-20 18:25:00,36.7,17.8,29.88,NE,54,6.0,17.0,46,0.00,,,0.08,Weather View 32 v70,2013-03-21 01:25:00,
2013-03-20 18:30:00,37.0,17.1,29.88,NNE,21,6.0,17.0,44,0.00,,,0.08,Weather View 32 v70,2013-03-21 01:30:00,
2013-03-20 18:35:00,37.4,17.5,29.88,ENE,76,6.0,17.0,44,0.00,,,0.08,Weather View 32 v70,2013-03-21 01:35:00,
2013-03-20 18:40:00,37.4,17.5,29.88,NNE,24,4.0,17.0,44,0.00,,,0.08,Weather View 32 v70,2013-03-21 01:40:00,
2013-03-20 18:45:00,36.9,17.0,29.88,ENE,59,8.0,17.0,44,0.00,,,0.08,Weather View 32 v70,2013-03-21 01:45:00,
2013-03-20 18:50:00,36.7,16.8,29.88,ENE,65,4.0,17.0,44,0.00,,,0.08,Weather View 32 v70,2013-03-21 01:50:00,
2013-03-20 18:55:00,36.3,16.5,29.88,ENE,62,5.0,17.0,44,0.00,,,0.08,Weather View 32 v70,2013-03-21 01:55:00,
2013-03-20 19:00:00,36.3,16.5,29.88,East,81,3.0,17.0,44,0.00,,,0.08,Weather View 32 v70,2013-03-21 02:00:00,
2013-03-20 19:05:00,36.1,16.3,29.88,ENE,60,4.0,15.0,44,0.00,,,0.08,Weather View 32 v70,2013-03-21 02:05:00,
2013-03-20 19:10:00,35.8,16.0,29.88,ENE,60,8.0,12.0,44,0.00,,,0.08,Weather View 32 v70,2013-03-21 02:10:00,
2013-03-20 19:15:00,35.2,16.5,29.88,East,80,9.0,12.0,46,0.00,,,0.08,Weather View 32 v70,2013-03-21 02:15:00,
2013-03-20 19:20:00,34.9,17.6,29.91,NE,39,6.0,12.0,49,0.00,,,0.08,Weather View 32 v70,2013-03-21 02:20:00,
2013-03-20 19:25:00,34.3,18.1,29.91,NNE,33,5.0,12.0,51,0.00,,,0.08,Weather View 32 v70,2013-03-21 02:25:00,
2013-03-20 19:30:00,34.2,18.4,29.91,NE,41,4.0,11.0,52,0.00,,,0.08,Weather View 32 v70,2013-03-21 02:30:00,
2013-03-20 19:35:00,34.0,18.6,29.91,ENE,69,4.0,11.0,53,0.00,,,0.08,Weather View 32 v70,2013-03-21 02:35:00,
2013-03-20 19:40:00,33.8,18.9,29.91,NE,49,4.0,11.0,54,0.00,,,0.08,Weather View 32 v70,2013-03-21 02:40:00,
2013-03-20 19:45:00,33.6,19.2,29.91,NE,35,8.0,11.0,55,0.00,,,0.08,Weather View 32 v70,2013-03-21 02:45:00,
2013-03-20 19:50:00,33.4,19.0,29.91,NE,35,6.0,11.0,55,0.00,,,0.08,Weather View 32 v70,2013-03-21 02:50:00,
2013-03-20 19:55:00,33.4,19.0,29.91,North,3,6.0,11.0,55,0.00,,,0.08,Weather View 32 v70,2013-03-21 02:55:00,
2013-03-20 20:00:00,33.3,18.8,29.91,North,2,6.0,11.0,55,0.00,,,0.08,Weather View 32 v70,2013-03-21 03:00:00,
2013-03-20 20:05:00,33.4,18.6,29.91,NE,37,5.0,11.0,54,0.00,,,0.08,Weather View 32 v70,2013-03-21 03:05:00,
2013-03-20 20:10:00,33.3,18.4,29.91,ENE,61,4.0,11.0,54,0.00,,,0.08,Weather View 32 v70,2013-03-21 03:10:00,
2013-03-20 20:15:00,33.3,18.4,29.91,NNE,31,0.0,11.0,54,0.00,,,0.08,Weather View 32 v70,2013-03-21 03:15:00,
2013-03-20 20:20:00,33.3,18.4,29.94,NE,51,3.0,10.0,54,0.00,,,0.08,Weather View 32 v70,2013-03-21 03:20:00,
2013-03-20 20:25:00,33.1,18.2,29.94,ENE,71,0.0,10.0,54,0.00,,,0.08,Weather View 32 v70,2013-03-21 03:25:00,
2013-03-20 20:30:00,33.1,18.2,29.94,NW,316,2.0,10.0,54,0.00,,,0.08,Weather View 32 v70,2013-03-21 03:30:00,
2013-03-20 20:35:00,33.3,18.4,29.94,WNW,302,3.0,10.0,54,0.00,,,0.08,Weather View 32 v70,2013-03-21 03:35:00,
2013-03-20 20:40:00,33.4,18.6,29.94,NNW,342,4.0,10.0,54,0.00,,,0.08,Weather View 32 v70,2013-03-21 03:40:00,
2013-03-20 20:45:00,33.6,18.3,29.94,NNE,13,4.0,9.0,53,0.00,,,0.08,Weather View 32 v70,2013-03-21 03:45:00,
2013-03-20 20:50:00,33.8,18.5,29.94,North,0,6.0,9.0,53,0.00,,,0.08,Weather View 32 v70,2013-03-21 03:50:00,
2013-03-20 20:55:00,33.6,19.2,29.94,North,0,5.0,11.0,55,0.00,,,0.08,Weather View 32 v70,2013-03-21 03:55:00,
2013-03-20 21:00:00,33.4,18.6,29.94,NNE,19,8.0,11.0,54,0.00,,,0.08,Weather View 32 v70,2013-03-21 04:00:00,
2013-03-20 21:05:00,33.3,18.8,29.94,NNW,337,5.0,11.0,55,0.00,,,0.08,Weather View 32 v70,2013-03-21 04:05:00,
2013-03-20 21:07:00,33.1,18.7,29.94,North,2,8.0,11.0,55,0.00,,,0.08,Weather View 32 v70,2013-03-21 04:07:00,
2013-03-20 21:12:00,32.7,18.7,29.94,North,0,4.0,11.0,56,0.00,,,0.08,Weather View 32 v70,2013-03-21 04:12:00,
2013-03-20 21:17:00,32.5,18.6,29.94,NNE,12,3.0,11.0,56,0.00,,,0.08,Weather View 32 v70,2013-03-21 04:17:00,
2013-03-20 21:20:00,32.5,18.6,29.94,North,5,7.0,11.0,56,0.00,,,0.08,Weather View 32 v70,2013-03-21 04:20:00,
2013-03-20 21:25:00,32.2,18.2,29.94,North,4,0.0,11.0,56,0.00,,,0.08,Weather View 32 v70,2013-03-21 04:25:00,
2013-03-20 21:30:00,31.8,18.3,29.94,North,4,0.0,11.0,57,0.00,,,0.08,Weather View 32 v70,2013-03-21 04:30:00,
2013-03-20 21:35:00,31.5,18.0,29.97,North,4,0.0,11.0,57,0.00,,,0.08,Weather View 32 v70,2013-03-21 04:35:00,
2013-03-20 21:40:00,31.3,17.8,29.97,North,4,0.0,11.0,57,0.00,,,0.08,Weather View 32 v70,2013-03-21 04:40:00,
2013-03-20 21:45:00,31.1,18.4,29.97,North,4,0.0,11.0,59,0.00,,,0.08,Weather View 32 v70,2013-03-21 04:45:00,
2013-03-20 21:50:00,30.6,18.3,29.97,North,4,3.0,11.0,60,0.00,,,0.08,Weather View 32 v70,2013-03-21 04:50:00,
2013-03-20 21:55:00,30.2,18.0,29.97,North,4,0.0,11.0,60,0.00,,,0.08,Weather View 32 v70,2013-03-21 04:55:00,
2013-03-20 22:00:00,30.0,17.8,29.97,North,4,0.0,8.0,60,0.00,,,0.08,Weather View 32 v70,2013-03-21 05:00:00,
2013-03-20 22:05:00,29.7,17.5,29.97,North,4,3.0,8.0,60,0.00,,,0.08,Weather View 32 v70,2013-03-21 05:05:00,
2013-03-20 22:10:00,29.5,17.3,29.97,North,353,4.0,7.0,60,0.00,,,0.08,Weather View 32 v70,2013-03-21 05:10:00,
2013-03-20 22:15:00,29.3,17.9,29.97,North,353,0.0,7.0,62,0.00,,,0.08,Weather View 32 v70,2013-03-21 05:15:00,
2013-03-20 22:20:00,28.9,17.9,29.97,North,353,0.0,5.0,63,0.00,,,0.08,Weather View 32 v70,2013-03-21 05:20:00,
2013-03-20 22:25:00,28.8,17.4,29.97,North,353,3.0,4.0,62,0.00,,,0.08,Weather View 32 v70,2013-03-21 05:25:00,
2013-03-20 22:30:00,28.6,17.6,29.97,North,353,0.0,4.0,63,0.00,,,0.08,Weather View 32 v70,2013-03-21 05:30:00,
2013-03-20 22:35:00,28.6,17.9,30.00,West,273,4.0,4.0,64,0.00,,,0.08,Weather View 32 v70,2013-03-21 05:35:00,
2013-03-20 22:40:00,28.8,17.7,30.00,West,261,0.0,4.0,63,0.00,,,0.08,Weather View 32 v70,2013-03-21 05:40:00,
2013-03-20 22:45:00,28.8,17.4,30.00,West,261,0.0,4.0,62,0.00,,,0.08,Weather View 32 v70,2013-03-21 05:45:00,
2013-03-20 22:50:00,28.6,17.2,30.00,West,261,0.0,4.0,62,0.00,,,0.08,Weather View 32 v70,2013-03-21 05:50:00,
2013-03-20 22:56:00,28.6,17.2,30.00,West,261,0.0,4.0,62,0.00,,,0.08,Weather View 32 v70,2013-03-21 05:56:00,
2013-03-20 23:01:00,28.2,16.9,30.00,West,261,0.0,4.0,62,0.00,,,0.08,Weather View 32 v70,2013-03-21 06:01:00,
2013-03-20 23:06:00,28.0,17.1,30.00,West,261,0.0,4.0,63,0.00,,,0.08,Weather View 32 v70,2013-03-21 06:06:00,
2013-03-20 23:11:00,27.9,17.3,30.00,West,261,0.0,4.0,64,0.00,,,0.08,Weather View 32 v70,2013-03-21 06:11:00,
2013-03-20 23:16:00,27.7,17.4,30.00,East,82,0.0,4.0,65,0.00,,,0.08,Weather View 32 v70,2013-03-21 06:16:00,
2013-03-20 23:21:00,28.0,18.1,30.00,NE,50,4.0,6.0,66,0.00,,,0.08,Weather View 32 v70,2013-03-21 06:21:00,
2013-03-20 23:26:00,28.8,18.8,30.00,ENE,58,4.0,6.0,66,0.00,,,0.08,Weather View 32 v70,2013-03-21 06:26:00,
2013-03-20 23:31:00,29.3,19.0,30.00,NE,35,4.0,6.0,65,0.00,,,0.08,Weather View 32 v70,2013-03-21 06:31:00,
2013-03-20 23:36:00,29.5,18.8,30.03,NE,36,0.0,6.0,64,0.00,,,0.08,Weather View 32 v70,2013-03-21 06:36:00,
2013-03-20 23:41:00,29.5,18.4,30.03,NE,36,0.0,6.0,63,0.00,,,0.08,Weather View 32 v70,2013-03-21 06:41:00,
2013-03-20 23:46:00,29.1,18.1,30.03,NE,36,0.0,6.0,63,0.00,,,0.08,Weather View 32 v70,2013-03-21 06:46:00,
2013-03-20 23:51:00,28.8,18.1,30.03,NE,36,0.0,6.0,64,0.00,,,0.08,Weather View 32 v70,2013-03-21 06:51:00,
2013-03-20 23:56:00,28.8,19.2,30.03,SE,131,2.0,6.0,67,0.00,,,0.08,Weather View 32 v70,2013-03-21 06:56:00,